sat.trackr.live / text

‹ back to catalog

STARLINK-5969

NORAD 55993 · 2023-042H

PAYLOAD ACTIVE UNKNOWN

§ Identity

Operator
Country
US
Launch date
2023-03-24
Launch site
AFETR
Launch vehicle
Mass (kg)
RCS (m²)

Purposes: comms

External: N2YO · Heavens-Above · Gunter

§ Orbital elements

Epoch: 2026-05-24T22:48:32.522688Z

Period
94.27 min
Inclination
43.0061°
Eccentricity
0.0001661
Mean motion
15.27573840 rev/d
Perigee alt
481.9 km
Apogee alt
484.2 km
Semi-major
6,861.2 km
B*
-1.2447e-5
RAAN
348.8376°
Arg perigee
265.0444°
Mean anomaly
95.0218°
Rev number
17,453

§ Raw data

STARLINK-59691 55993U 23042H   26144.95037642 -.00000605  00000+0 -12447-4 0  99992 55993  43.0061 348.8376 0001661 265.0444  95.0218 15.27573840174532

JSON: /api/v1/satellites/55993 · /tle

For live sub-satellite position, see the globe view (requires WebGL).

§ Visibility from observer

Set your observer location to see the next 7 days of passes ≥ 10°. The values pass through the URL so the page stays shareable.

No JS? Fill the form by hand. The geolocation button needs JavaScript.